622  
ASPQ40 PGUM 260712  
RWRPQ  
WEATHER ROUNDUP FOR THE MARIANAS AND MICRONESIA  
NATIONAL WEATHER SERVICE TIYAN GU  
500 PM CHST FRI MAY 26 2017  
 
GUZ001>004-260800-  
MARIANA ISLANDS-  
 
CITY SKY/WX TMP DP RH WIND PRES REMARKS
 
GUAM AIRPORT MOSUNNY 88 75 66 E16 29.84S HX 97  
ANDERSEN AFB PTSUNNY 84 75 74 E14 29.86R HX 92  
ROTA AIRPORT MOSUNNY 82 77 83 E12 29.85S HX 91  
TINIAN AP MOSUNNY 84 75 74 E13 29.83S HX 92  
SAIPAN AP MOSUNNY 88 75 66 E15 29.84S HX 97  
 

 
 
PMZ161-260800-  
REPUBLIC OF PALAU-  
 
CITY SKY/WX TMP DP RH WIND PRES REMARKS
 
KOROR AP PTSUNNY 86 77 74 SE8 29.76F HX 97  
KOROR WSO PTSUNNY 88 77 70 SE7 29.77F HX 100  
 

 
 
PMZ171>174-260800-  
FEDERATED STATES OF MICRONESIA-  
 
CITY SKY/WX TMP DP RH WIND PRES REMARKS
 
YAP AIRPORT PTSUNNY 86 79 79 E9 29.78F HX 99  
CHUUK AP CLOUDY 84 81 89 VRB6 29.76S HX 98  
POHNPEI AP NOT AVBL  
POHNPEI WSO MOCLDY 84 75 74 NE3 29.81R HX 92  
KOSRAE AP NOT AVBL  
 

 
 
PMZ181-260800-  
REPUBLIC OF THE MARSHALL ISLANDS-  
 
CITY SKY/WX TMP DP RH WIND PRES REMARKS
 
KWAJALEIN AP CLEAR 84 73 70 E16 29.84R HX 91  
MAJURO AP MOCLDY 82 75 78 NE10 29.82R  
MAJURO WSO MOCLDY 82 77 83 NE9 29.82R HX 91  
 

 
 
 
 
CLICK HERE TO GO TO PREVIOUS BULLETINS.

The Nexlab GU Page Main Text Page